Location: Wawayanda State Park
(41.1833°N, 74.4333°W)
Time: 06:50:45
(UTC-04:00)

Landsat 7 - Visible Passes

Search period start: 27 August 2014 00:00
Search period end: 06 September 2014 00:00
Orbit: 702 x 703 km, 98.2° (Epoch: 26 August)

Date Brightness Start Highest point End Pass type
(mag) Time Alt. Az. Time Alt. Az. Time Alt. Az.
27 Aug 6.6 00:04:23 11° WNW 00:04:23 11° WNW 00:04:49 10° WNW visible
27 Aug 5.4 21:29:58 20° ENE 21:29:58 20° ENE 21:33:14 10° NNE visible
27 Aug 5.3 23:08:52 33° NW 23:08:52 33° NW 23:11:51 10° NNW visible
28 Aug 4.6 22:13:20 41° NE 22:13:20 41° NE 22:16:53 10° N visible
28 Aug 6.4 23:52:14 14° WNW 23:52:14 14° WNW 23:53:26 10° NW visible
29 Aug 5.7 21:17:49 15° ENE 21:17:49 15° ENE 21:20:28 10° NNE visible
29 Aug 5.1 22:56:42 37° NW 22:56:42 37° NW 22:59:43 10° NNW visible
30 Aug 4.9 22:01:11 33° NE 22:01:11 33° NE 22:04:30 10° N visible
30 Aug 6.3 23:40:04 17° WNW 23:40:04 17° WNW 23:41:43 10° NW visible
31 Aug 5.9 21:05:39 12° ENE 21:05:43 12° ENE 21:07:18 10° NE visible
31 Aug 5.0 22:44:33 39° NNW 22:44:33 39° NNW 22:47:32 10° NNW visible
01 Sep 5.2 21:49:02 26° NE 21:49:02 26° NE 21:52:02 10° N visible
01 Sep 6.1 23:27:55 20° NW 23:27:55 20° NW 23:29:49 10° NW visible
02 Sep 5.0 22:32:24 37° N 22:32:24 37° N 22:35:17 10° N visible
03 Sep 5.5 21:36:53 21° NE 21:36:53 21° NE 21:39:29 10° NNE visible
03 Sep 6.0 23:15:46 23° NW 23:15:46 23° NW 23:17:49 10° NNW visible
04 Sep 5.1 22:20:15 33° N 22:20:15 33° N 22:22:59 10° N visible
05 Sep 5.7 21:24:44 16° NE 21:24:44 16° NE 21:26:49 10° NNE visible
05 Sep 5.8 23:03:37 25° NNW 23:03:37 25° NNW 23:05:44 10° NNW visible
